Wind_Speed
28 27 23 27 32 35 37 31 26 32 32 29 26 26 26 28 30 35 28 26 21 16 12 8 7 4 5 9 9 8 6 7 7 8 9 9 9 10 10 11 12 12 14
23 24 21 20 27 33 30 29 33 27 28 31 25 21 21 31 35 34 29 25 21 18 13 9 8 9 9 7 7 8 7 7 8 10 11 10 10 11 12 13 14 14 14
26 26 25 22 24 30 34 32 33 28 22 26 18 23 25 39 41 37 31 25 22 18 14 14 12 8 10 8 8 7 7 9 11 11 12 10 11 12 13 14 15 15 15
31 32 31 29 28 30 30 22 27 26 30 22 26 25 30 32 26 25 26 21 21 19 17 13 12 9 7 7 9 8 9 11 12 13 13 12 13 13 14 14 15 14 13
30 34 38 35 35 34 35 36 31 30 21 16 26 20 30 30 29 29 23 18 18 18 14 12 9 8 6 10 9 8 11 13 16 16 14 15 15 15 15 15 15 15 14
32 35 40 44 41 38 36 34 27 34 29 19 20 21 32 30 25 21 21 19 20 17 14 11 11 9 8 11 13 14 13 15 16 17 16 16 16 15 17 16 16 13 12
31 31 33 39 47 47 36 36 30 28 37 30 20 24 34 33 30 26 24 21 18 16 14 13 12 13 14 16 17 15 16 17 18 18 17 17 16 16 15 16 15 13 14
28 24 27 29 44 45 41 39 39 26 31 29 27 32 35 36 30 26 24 24 21 19 16 15 15 16 15 15 15 16 18 18 18 19 17 15 16 18 18 16 16 14 14
24 18 18 21 36 46 47 49 36 34 27 30 30 27 29 35 29 27 25 22 21 18 18 15 16 13 13 15 14 15 18 20 18 20 19 21 20 21 17 17 16 15 15
28 20 14 9 36 36 39 29 34 36 29 28 26 25 28 37 34 30 27 26 23 20 17 17 18 18 15 13 13 18 21 20 21 20 22 17 20 24 18 17 16 15 15
30 23 13 7 7 31 23 42 38 42 28 29 31 27 30 32 36 34 30 29 24 21 20 19 19 19 16 14 20 21 23 23 22 21 18 18 21 19 18 16 16 16 16
30 21 17 8 10 23 24 17 40 36 29 27 29 28 24 36 39 36 32 30 26 22 20 20 20 17 18 16 20 25 25 24 26 25 23 21 17 17 19 18 17 16 17
33 23 16 10 11 20 21 25 27 37 31 24 28 29 25 36 41 35 33 29 26 20 22 21 18 19 19 20 22 21 23 24 26 27 26 21 19 18 20 20 18 16 17
28 27 20 14 15 18 23 25 29 39 26 32 29 28 30 37 39 36 33 30 28 25 24 22 21 22 21 20 20 21 24 23 25 27 28 24 24 22 21 19 18 18 18
24 24 18 21 14 21 21 28 35 34 36 40 30 30 30 38 39 39 38 32 31 32 25 24 24 23 21 19 22 25 26 25 27 28 24 22 21 21 20 20 18 18 18
22 21 19 21 22 15 23 32 34 28 38 34 40 34 29 36 41 44 40 36 35 32 25 23 24 25 20 22 22 28 24 27 27 26 24 21 21 21 22 22 19 20 19
25 19 19 19 21 18 13 27 40 43 43 40 41 35 37 35 38 40 42 37 36 31 29 25 28 26 28 26 29 27 27 27 26 27 26 24 24 24 23 22 22 21 23
24 19 17 21 22 23 27 22 38 50 47 46 44 44 35 34 37 40 41 37 36 31 28 30 29 27 27 31 24 28 28 29 29 26 29 27 25 24 26 24 25 25 27
24 17 17 21 21 20 23 22 32 39 53 50 44 50 42 39 41 44 46 41 36 30 30 31 29 27 27 27 27 27 28 27 26 25 26 23 22 25 27 23 26 28 30
21 14 14 17 18 20 13 14 28 40 48 43 47 40 41 41 41 42 44 39 33 34 30 30 30 29 27 27 27 29 27 25 22 20 23 23 25 27 24 28 29 30 32
15 10 12 14 13 13 5 13 24 36 39 45 37 35 41 42 42 44 39 35 34 34 31 27 27 27 30 30 28 30 27 24 22 23 27 27 23 23 29 31 31 33 35
11 9 9 11 12 11 11 17 24 30 37 36 39 43 42 44 41 36 33 33 36 34 31 31 32 32 30 29 28 30 23 18 22 24 23 25 28 29 32 33 34 38 38
10 6 8 9 8 12 6 13 23 27 25 40 31 35 41 38 36 38 34 26 30 34 35 37 35 33 32 28 30 24 17 21 25 24 27 29 31 32 34 37 38 39 40
9 6 7 10 9 10 13 17 17 19 23 30 20 25 34 28 27 30 34 30 31 33 34 33 33 32 31 25 26 20 23 25 27 28 32 32 32 34 37 39 39 40 42
7 8 6 3 4 7 14 15 18 21 25 24 29 26 28 29 30 31 31 32 31 31 30 30 30 24 24 25 23 24 25 26 28 31 31 34 36 40 41 41 40 43 44
10 5 2 5 2 1 5 12 15 21 23 25 35 33 22 29 34 36 34 37 32 29 24 20 20 20 22 23 26 28 29 31 32 33 38 41 45 38 45 45 46 46 46
Wind_Direction
292 287 274 255 242 243 246 245 232 238 236 229 227 228 223 222 220 218 200 192 181 178 183 183 170 180 228 238 248 240 264 275 268 270 266 275 278 281 284 280 276 279 274
299 298 291 278 249 241 245 231 224 214 219 225 227 223 226 221 217 200 189 186 177 171 173 172 197 211 232 239 233 231 236 253 262 264 267 268 283 291 288 284 287 284 274
287 279 274 264 249 243 245 241 249 255 214 208 222 231 226 214 205 189 182 174 172 174 176 189 203 207 224 221 230 239 262 263 270 268 273 283 286 290 288 285 285 283 280
276 269 262 256 246 241 234 231 235 234 225 206 211 210 210 203 204 183 177 170 171 179 183 197 203 211 221 224 232 235 251 266 274 276 280 287 291 290 284 284 284 279 271
273 270 261 253 246 240 242 241 245 245 230 221 213 224 206 204 188 185 181 176 173 186 194 195 204 207 210 227 226 245 255 262 266 275 277 278 283 282 278 277 277 267 259
280 276 260 249 243 236 237 232 230 236 247 227 212 229 203 193 180 184 186 194 191 198 208 202 214 219 220 221 235 249 255 270 272 270 268 269 271 275 278 284 271 258 249
285 288 275 254 230 224 222 234 225 213 236 241 237 230 206 193 187 188 186 188 189 196 211 214 212 217 219 230 244 253 259 260 264 275 276 275 271 279 291 282 272 260 257
299 298 284 249 211 202 211 222 216 211 223 222 235 234 220 196 192 191 194 196 199 202 213 220 218 218 228 238 247 258 259 265 267 276 277 270 272 282 287 272 264 263 259
302 295 309 256 240 188 203 204 209 218 225 224 232 242 229 192 192 194 201 200 207 215 228 229 226 224 234 240 243 257 267 269 281 280 280 276 275 277 276 270 266 262 262
304 308 309 269 175 199 194 199 192 203 202 220 222 233 229 197 191 197 206 212 213 219 228 233 233 224 235 246 258 257 261 267 272 279 272 270 261 270 264 263 267 270 271
303 310 319 285 221 190 194 200 207 200 188 213 219 213 219 197 202 205 207 215 215 225 234 234 229 231 239 251 253 262 264 266 264 273 269 270 264 272 269 261 259 265 268
303 305 300 277 228 199 192 200 195 184 206 203 205 210 222 210 198 208 209 217 223 230 242 236 237 239 241 250 261 263 270 277 273 279 278 272 256 261 261 253 259 266 271
300 300 285 279 237 203 209 203 195 199 214 218 207 211 214 212 199 204 212 219 229 234 243 239 241 241 245 251 264 275 278 280 280 276 276 261 248 261 261 259 262 268 274
289 283 287 279 241 214 206 207 213 215 224 205 215 218 216 208 204 206 215 217 228 236 240 237 246 252 250 265 275 279 273 277 279 277 268 247 245 258 256 257 265 272 282
285 281 272 272 237 224 217 220 221 216 213 215 214 213 211 204 202 212 212 220 230 234 232 241 251 267 258 268 268 274 273 276 281 278 267 245 242 251 252 253 262 271 278
290 275 271 272 269 232 224 224 217 208 222 224 219 220 210 216 216 220 211 219 228 233 235 245 260 261 256 266 275 276 277 275 277 270 255 241 245 246 247 251 261 270 279
302 274 261 259 266 280 263 217 220 219 222 223 213 214 217 212 213 210 210 217 230 235 239 244 254 258 258 261 268 279 281 278 272 268 251 243 246 242 248 252 257 269 272
309 278 251 255 260 276 283 243 224 222 212 213 211 211 214 206 212 209 216 219 229 232 239 247 253 257 261 258 270 276 272 268 263 251 249 245 242 245 251 258 262 269 274
311 277 248 254 259 267 276 234 224 217 209 208 215 218 210 219 215 215 217 222 230 238 239 244 248 259 263 268 269 271 271 264 251 250 242 242 245 253 252 264 266 271 277
309 264 252 246 259 275 255 216 200 199 204 203 207 208 212 204 204 216 220 224 229 235 237 246 253 260 265 267 267 268 261 250 242 245 252 250 247 249 260 264 268 273 278
306 252 238 241 253 260 298 183 176 180 185 207 199 205 204 207 206 216 225 230 236 238 241 247 258 260 266 267 266 261 248 237 241 243 249 252 259 263 261 264 270 275 279
313 269 235 229 256 244 240 185 172 182 190 199 197 209 208 210 215 224 229 236 234 239 247 254 265 264 265 264 257 258 248 241 248 254 258 259 260 262 267 272 276 282 285
342 282 226 224 233 258 234 163 181 197 204 189 204 209 210 210 226 232 236 235 239 244 248 257 264 263 266 261 251 245 235 242 254 262 262 263 264 267 272 277 281 286 292
0 4 258 233 241 259 232 197 189 190 185 191 196 196 201 212 215 220 230 246 252 254 256 257 261 265 265 258 246 238 237 247 259 260 264 265 270 275 276 279 284 287 290
339 15 16 208 191 199 226 229 226 228 222 218 205 212 223 225 231 234 245 253 256 257 253 255 264 256 250 242 240 245 247 252 266 273 268 274 277 274 276 276 281 286 287
306 313 6 7 334 163 171 221 239 223 231 234 215 221 242 237 233 233 244 252 255 254 258 249 249 251 254 258 255 257 263 266 272 273 273 270 272 274 280 277 285 283 286
Height
5790 5789 5791 5792 5794 5796 5798 5802 5805 5807 5808 5812 5816 5817 5819 5822 5825 5829 5832 5834 5835 5837 5839 5841 5842 5844 5846 5847 5848 5848 5850 5850 5851 5851 5851 5852 5851 5850 5850 5850 5850 5848 5849
5787 5786 5787 5788 5790 5792 5794 5797 5801 5800 5802 5808 5811 5813 5813 5816 5821 5823 5826 5829 5830 5832 5835 5838 5840 5842 5843 5844 5845 5847 5848 5848 5848 5849 5850 5849 5848 5848 5848 5847 5847 5846 5846
5783 5782 5782 5783 5784 5786 5790 5795 5797 5797 5801 5804 5808 5809 5811 5811 5813 5818 5820 5823 5825 5829 5832 5835 5838 5838 5841 5842 5844 5844 5845 5845 5846 5847 5847 5846 5846 5847 5847 5845 5844 5844 5844
5778 5776 5777 5779 5781 5782 5784 5788 5792 5795 5797 5798 5803 5805 5808 5810 5811 5814 5817 5820 5822 5827 5830 5833 5835 5835 5836 5839 5841 5841 5842 5842 5844 5844 5844 5844 5845 5845 5844 5843 5842 5841 5840
5772 5769 5770 5772 5773 5776 5779 5783 5787 5791 5793 5797 5799 5803 5806 5807 5808 5811 5814 5818 5821 5825 5828 5828 5830 5831 5832 5837 5839 5839 5839 5840 5841 5841 5842 5842 5841 5841 5841 5840 5838 5839 5838
5765 5762 5759 5761 5764 5768 5774 5777 5780 5785 5790 5792 5795 5800 5803 5804 5807 5811 5813 5816 5818 5821 5825 5824 5827 5829 5831 5835 5836 5836 5836 5837 5839 5839 5838 5837 5838 5839 5839 5837 5837 5836 5836
5758 5753 5748 5738 5745 5756 5764 5771 5774 5779 5785 5789 5792 5797 5800 5801 5804 5810 5811 5812 5815 5819 5821 5823 5825 5826 5829 5831 5832 5832 5834 5835 5836 5835 5835 5834 5835 5835 5835 5836 5835 5835 5835
5749 5747 5742 5731 5725 5732 5752 5764 5768 5772 5779 5784 5790 5793 5794 5798 5802 5807 5809 5810 5813 5816 5818 5820 5821 5823 5825 5828 5828 5830 5832 5832 5832 5831 5831 5832 5832 5832 5832 5832 5833 5832 5833
5745 5743 5736 5732 5725 5730 5747 5754 5761 5768 5775 5780 5785 5788 5788 5794 5799 5805 5808 5808 5810 5812 5815 5817 5819 5821 5822 5825 5825 5828 5829 5829 5828 5828 5827 5828 5829 5829 5830 5830 5830 5830 5830
5740 5737 5735 5728 5727 5734 5742 5746 5758 5762 5768 5775 5780 5784 5788 5790 5795 5801 5804 5805 5807 5810 5812 5814 5816 5818 5820 5821 5822 5824 5825 5826 5825 5824 5823 5824 5823 5825 5825 5825 5827 5828 5828
5735 5733 5732 5730 5727 5733 5736 5752 5757 5753 5758 5769 5775 5780 5784 5787 5792 5796 5800 5803 5805 5807 5810 5811 5812 5815 5816 5816 5819 5820 5820 5820 5819 5819 5819 5820 5820 5823 5824 5824 5824 5825 5825
5731 5731 5728 5730 5731 5733 5742 5747 5754 5753 5762 5765 5770 5775 5780 5784 5789 5794 5796 5799 5802 5804 5806 5808 5809 5810 5811 5812 5813 5816 5815 5815 5816 5815 5816 5816 5818 5819 5819 5820 5822 5822 5822
5727 5729 5730 5730 5730 5733 5737 5745 5748 5756 5757 5761 5766 5772 5777 5779 5785 5790 5793 5795 5799 5801 5803 5804 5804 5806 5806 5808 5809 5809 5809 5809 5810 5812 5811 5812 5814 5815 5817 5818 5818 5818 5819
5729 5728 5728 5728 5729 5731 5735 5738 5743 5750 5752 5757 5764 5768 5773 5776 5782 5787 5790 5793 5795 5797 5799 5800 5802 5802 5804 5803 5803 5804 5805 5805 5806 5808 5808 5807 5809 5810 5811 5813 5815 5816 5816
5727 5724 5727 5726 5725 5726 5729 5733 5738 5742 5749 5752 5759 5764 5769 5773 5779 5783 5787 5788 5791 5794 5796 5797 5798 5798 5799 5797 5800 5801 5800 5800 5801 5803 5802 5804 5805 5806 5807 5809 5810 5810 5810
5724 5722 5721 5723 5723 5723 5725 5728 5732 5735 5742 5746 5753 5760 5764 5769 5774 5778 5782 5784 5787 5791 5791 5794 5795 5794 5794 5796 5795 5797 5795 5795 5796 5797 5797 5798 5800 5802 5802 5803 5804 5806 5807
5720 5719 5720 5719 5717 5717 5717 5720 5722 5726 5734 5741 5747 5754 5760 5765 5769 5772 5778 5780 5784 5785 5787 5789 5790 5791 5791 5790 5793 5792 5790 5792 5792 5793 5793 5794 5796 5798 5799 5800 5801 5802 5803
5716 5714 5715 5716 5715 5714 5712 5712 5714 5716 5726 5735 5741 5748 5754 5759 5764 5769 5772 5775 5778 5781 5783 5785 5786 5787 5786 5788 5785 5786 5785 5786 5787 5786 5788 5790 5792 5793 5794 5795 5797 5797 5798
5712 5711 5711 5712 5713 5712 5708 5705 5705 5711 5719 5729 5736 5742 5749 5753 5759 5764 5767 5769 5773 5777 5779 5781 5781 5781 5781 5780 5782 5781 5782 5782 5782 5782 5783 5785 5787 5789 5790 5791 5791 5790 5790
5709 5707 5708 5709 5709 5705 5702 5699 5695 5703 5714 5723 5732 5738 5742 5747 5753 5757 5761 5765 5768 5772 5774 5775 5775 5775 5776 5776 5775 5775 5775 5776 5777 5779 5780 5781 5782 5784 5784 5785 5785 5784 5783
5707 5705 5706 5707 5707 5705 5701 5698 5697 5702 5711 5722 5728 5734 5738 5742 5747 5752 5757 5760 5765 5767 5768 5769 5769 5770 5770 5770 5769 5768 5769 5770 5772 5774 5775 5777 5777 5777 5777 5777 5777 5777 5775
5707 5704 5703 5706 5706 5705 5704 5700 5701 5707 5714 5719 5724 5729 5734 5740 5744 5749 5754 5757 5759 5761 5762 5763 5764 5765 5764 5764 5764 5763 5765 5767 5768 5769 5771 5771 5771 5772 5772 5771 5771 5770 5768
5707 5706 5704 5704 5705 5705 5707 5704 5704 5709 5712 5718 5722 5727 5732 5738 5742 5746 5750 5751 5754 5755 5757 5758 5759 5759 5759 5759 5759 5760 5761 5763 5763 5765 5766 5766 5765 5765 5766 5764 5762 5761 5760
5709 5706 5705 5703 5703 5705 5707 5707 5709 5710 5713 5717 5721 5725 5730 5734 5738 5741 5744 5746 5748 5750 5752 5752 5753 5753 5754 5753 5753 5755 5757 5759 5760 5761 5760 5760 5760 5759 5758 5756 5754 5753 5752
5710 5707 5706 5704 5703 5703 5705 5708 5709 5712 5713 5716 5720 5724 5728 5731 5733 5736 5738 5741 5743 5744 5744 5746 5747 5748 5748 5748 5749 5749 5752 5753 5754 5754 5755 5753 5752 5751 5749 5748 5746 5745 5743
5709 5708 5707 5706 5704 5703 5704 5707 5708 5709 5712 5715 5718 5721 5723 5727 5730 5732 5734 5735 5736 5739 5740 5742 5743 5744 5746 5745 5745 5746 5748 5747 5748 5749 5747 5745 5745 5742 5739 5737 5736 5735 5733